Location: Barnston
(51.8500°N, 0.4000°E)
Time: 11:52:30
(UTC+00:00)

Cosmos 489 Rocket - Pass Details

Date: 26 September 2023
Orbit: 953 x 982 km, 74.0° (Epoch: 28 November)

Event Time Altitude Azimuth Distance (km) Brightness Sun altitude
Exits shadow 04:00:40 16° 206° (SSW) 2,314 6.0 -17.4°
Maximum altitude 04:05:53 85° 296° (WNW) 993 4.5 -16.6°
Drops below altitude 10° 04:12:17 10° 25° (NNE) 2,745 7.5 -15.7°
Sets 04:14:50 0° 26° (NNE) 3,694 8.2 -15.3°
